SITRO-AIS 10 (BURDAEV)

Last updated on Mon Sep 21 2026 00:03:45 GMT+0000 (Coordinated Universal Time)

1 57199U 23091AK 26263.48750080 .00016636 00000+0 39231-3 0 9999 2 57199 97.4990 336.4955 0007146 92.4973 267.7092 15.41953323179431
UTC large
Height (km)
Speed (km/s)
/
Latitude / Longitude
Inclination (degrees)
Orbital Period (minutes)
Azimuth
Elevation
Range (km)
Doppler Factor

Next 0 passes for location: London (51.5072 / 0.1276)

No passes found over London.
SITRO-AIS 10 (BURDAEV)